This is the latest recevied weather packets stored in our database for station/object KR4KUV. If no packets are shown the sender has not sent any weather packets the latest 10 day(s).
| Time | Temp. | Humidity | Pressure | Rain* | Wind** | Luminosity | Snow |
|---|---|---|---|---|---|---|---|
| 1787408907 | 23.33° C | 90% | 1018.5 hPa | 0 mm | - | 167 W/m² | - |
| 1787408603 | 23.33° C | 92% | 1018.7 hPa | 0 mm | - | 153 W/m² | - |
| 1787408297 | 23.33° C | 92% | 1018.4 hPa | 0 mm | - | 108 W/m² | - |
| 1787407994 | 22.78° C | 92% | 1018.6 hPa | 0 mm | - | 126 W/m² | - |
| 1787407688 | 22.78° C | 93% | 1018.7 hPa | 0 mm | - | 74 W/m² | - |
| 1787407383 | 22.78° C | 93% | 1018.7 hPa | 0 mm | - | 76 W/m² | - |
| 1787407079 | 22.78° C | 94% | 1018.7 hPa | 0 mm | - | 90 W/m² | - |
| 1787406775 | 22.78° C | 94% | 1018.7 hPa | 0 mm | - | 64 W/m² | - |
| 1787406470 | 22.78° C | 94% | 1018.7 hPa | 0 mm | - | 77 W/m² | - |
| 1787406166 | 22.78° C | 94% | 1018.7 hPa | 0 mm | - | 72 W/m² | - |
| 1787405862 | 22.78° C | 95% | 1018.7 hPa | 0 mm | - | 71 W/m² | - |
| 1787405558 | 22.78° C | 95% | 1018.6 hPa | 0 mm | - | 67 W/m² | - |
| 1787405258 | 22.78° C | 95% | 1018.5 hPa | 0 mm | - | 66 W/m² | - |
| 1787404955 | 22.78° C | 95% | 1018.5 hPa | 0 mm | - | 61 W/m² | - |
| 1787404650 | 22.78° C | 95% | 1018.6 hPa | 0 mm | - | 62 W/m² | - |
| 1787404349 | 22.22° C | 95% | 1018.5 hPa | 0 mm | - | 70 W/m² | - |
| 1787404045 | 22.78° C | 96% | 1018.2 hPa | 0 mm | - | 75 W/m² | - |
| 1787403740 | 22.22° C | 97% | 1018.1 hPa | 0 mm | - | 79 W/m² | - |
| 1787403439 | 22.22° C | 97% | 1018.1 hPa | 0 mm | - | 69 W/m² | - |
| 1787403136 | 22.22° C | 97% | 1018.3 hPa | 0 mm | - | 56 W/m² | - |
| 1787402831 | 22.22° C | 97% | 1018.3 hPa | 0 mm | - | 52 W/m² | - |
| 1787402527 | 22.22° C | 98% | 1018.4 hPa | 0 mm | - | 46 W/m² | - |
| 1787402226 | 21.67° C | 98% | 1018.2 hPa | 0 mm | - | 45 W/m² | - |
| 1787401921 | 21.67° C | 98% | 1018.5 hPa | 0 mm | - | 35 W/m² | - |
| 1787401617 | 21.67° C | 98% | 1018.3 hPa | 0 mm | - | 28 W/m² | - |
* Rain latest hour (hover to see other rain measurements)
** Current wind speed in m/s (hover to see current wind gust speed)